TimePST,TemperatureF,Dew PointF,Humidity,Sea Level PressureIn,VisibilityMPH,Wind Direction,Wind SpeedMPH,Gust SpeedMPH,PrecipitationIn,Events,Conditions,WindDirDegrees,DateUTC
12:53 AM,42.1,34.0,73,29.75,10.0,SE,3.5,-,N/A,,Overcast,130,2013-02-19 08:53:00
1:53 AM,42.1,34.0,73,29.73,10.0,East,4.6,-,0.01,Rain,Light Rain,90,2013-02-19 09:53:00
2:11 AM,41.0,33.8,76,29.73,10.0,ENE,6.9,-,0.00,,Overcast,70,2013-02-19 10:11:00
2:53 AM,39.9,34.0,79,29.71,10.0,East,5.8,-,0.00,,Overcast,80,2013-02-19 10:53:00
3:53 AM,39.9,34.0,79,29.71,10.0,Calm,Calm,-,N/A,,Overcast,0,2013-02-19 11:53:00
4:53 AM,39.9,35.1,83,29.72,10.0,Calm,Calm,-,N/A,,Overcast,0,2013-02-19 12:53:00
5:53 AM,39.9,34.0,79,29.72,10.0,East,4.6,-,0.01,Rain,Light Rain,80,2013-02-19 13:53:00
6:53 AM,37.9,32.0,79,29.72,10.0,East,8.1,-,0.00,,Mostly Cloudy,90,2013-02-19 14:53:00
7:53 AM,37.9,32.0,79,29.73,10.0,ENE,5.8,-,N/A,,Partly Cloudy,70,2013-02-19 15:53:00
8:53 AM,42.1,33.1,70,29.74,10.0,Calm,Calm,-,N/A,,Clear,0,2013-02-19 16:53:00
9:36 AM,44.6,33.8,66,29.75,10.0,Calm,Calm,-,N/A,,Clear,0,2013-02-19 17:36:00
10:53 AM,46.0,35.1,66,29.76,10.0,NNW,3.5,-,N/A,,Clear,330,2013-02-19 18:53:00
11:33 AM,48.2,35.6,62,29.77,10.0,Variable,4.6,-,N/A,,Clear,0,2013-02-19 19:33:00
11:53 AM,48.9,34.0,56,29.77,10.0,Calm,Calm,-,N/A,,Clear,0,2013-02-19 19:53:00
12:53 PM,51.1,37.9,61,29.77,10.0,Variable,3.5,-,N/A,,Clear,0,2013-02-19 20:53:00
1:53 PM,54.0,37.0,53,29.78,10.0,West,6.9,-,N/A,,Clear,280,2013-02-19 21:53:00
2:53 PM,55.9,35.1,45,29.79,10.0,North,9.2,-,N/A,,Mostly Cloudy,360,2013-02-19 22:53:00
4:53 PM,51.1,33.1,50,29.82,10.0,NNE,5.8,-,N/A,,Clear,20,2013-02-20 00:53:00
5:53 PM,48.0,34.0,58,29.84,10.0,Calm,Calm,-,N/A,,Clear,0,2013-02-20 01:53:00
6:53 PM,44.1,34.0,68,29.87,10.0,West,3.5,-,N/A,,Clear,260,2013-02-20 02:53:00
7:53 PM,42.1,34.0,73,29.90,10.0,Calm,Calm,-,N/A,,Scattered Clouds,0,2013-02-20 03:53:00
8:53 PM,39.9,34.0,79,29.93,10.0,Calm,Calm,-,N/A,,Mostly Cloudy,0,2013-02-20 04:53:00
9:53 PM,39.9,33.1,77,29.96,10.0,Calm,Calm,-,N/A,,Mostly Cloudy,0,2013-02-20 05:53:00
10:53 PM,39.0,33.1,79,29.98,10.0,Calm,Calm,-,N/A,,Partly Cloudy,0,2013-02-20 06:53:00
11:53 PM,35.1,30.9,85,30.00,10.0,Calm,Calm,-,N/A,,Clear,0,2013-02-20 07:53:00